• In Hungary
  • List of Countries
  • For 7 days
  • Water Temperature
  • Satellite Maps
  • Weather Map
  • News
  • Weather Widgets
  • user-avatar
    Login

    Hourly Weather Boma

    Today, 24 September, Sunday

    Time Temperature Precipitation Wind Pressure Humidity
    00:00 +20°C° 0.3 mm 0 mps 702 mmHg 96%
    01:00 +20°C° 0.3 mm 0 mps 702 mmHg 97%
    02:00 +20°C° 0 mm 0 mps 701 mmHg 97%
    03:00 +20°C° 0 mm 0 mps 701 mmHg 98%
    04:00 +19°C° 0 mm 0 mps 701 mmHg 98%
    05:00 +20°C° 0 mm 0 mps 701 mmHg 98%
    06:00 +20°C° 0 mm 0 mps 701 mmHg 98%
    07:00 +20°C° 0 mm 0 mps 702 mmHg 97%
    08:00 +22°C° 0.1 mm 0 mps 702 mmHg 90%
    09:00 +26°C° 0.1 mm 1 mps 702 mmHg 82%
    10:00 +28°C° 0.1 mm 1 mps 703 mmHg 74%
    11:00 +28°C° 1.2 mm 1 mps 702 mmHg 73%
    12:00 +29°C° 1.2 mm 1 mps 702 mmHg 71%
    13:00 +30°C° 1.2 mm 1 mps 701 mmHg 69%
    14:00 +29°C° 1 mm 1 mps 700 mmHg 75%
    15:00 +28°C° 1 mm 1 mps 700 mmHg 82%
    16:00 +28°C° 1 mm 1 mps 699 mmHg 88%
    17:00 +26°C° 0.7 mm 1 mps 699 mmHg 90%
    18:00 +25°C° 0.7 mm 1 mps 700 mmHg 93%
    19:00 +23°C° 0.7 mm 1 mps 700 mmHg 96%
    20:00 +23°C° 0.3 mm 1 mps 700 mmHg 96%
    21:00 +23°C° 0.3 mm 1 mps 700 mmHg 96%
    22:00 +22°C° 0.3 mm 1 mps 701 mmHg 96%
    23:00 +22°C° 0 mm 1 mps 701 mmHg 97%

    Tomorrow, 25 September, Monday

    Time Temperature Precipitation Wind Pressure Humidity
    00:00 +22°C° 0 mm 1 mps 701 mmHg 97%
    01:00 +22°C° 0 mm 1 mps 701 mmHg 97%
    02:00 +22°C° 0.1 mm 1 mps 700 mmHg 98%
    03:00 +22°C° 0.1 mm 1 mps 700 mmHg 98%
    04:00 +21°C° 0.1 mm 1 mps 700 mmHg 99%
    05:00 +22°C° 0.1 mm 1 mps 700 mmHg 98%
    06:00 +20°C° 0.1 mm 0 mps 701 mmHg 98%
    07:00 +20°C° 0.1 mm 0 mps 701 mmHg 98%
    08:00 +23°C° 0 mm 1 mps 701 mmHg 91%
    09:00 +25°C° 0 mm 1 mps 702 mmHg 85%
    10:00 +26°C° 0 mm 1 mps 702 mmHg 78%
    11:00 +28°C° 0.7 mm 1 mps 702 mmHg 74%
    12:00 +29°C° 0.7 mm 1 mps 701 mmHg 70%
    13:00 +30°C° 0.7 mm 1 mps 700 mmHg 66%
    14:00 +29°C° 1.4 mm 1 mps 700 mmHg 73%
    15:00 +28°C° 1.4 mm 1 mps 699 mmHg 80%
    16:00 +25°C° 1.4 mm 0 mps 699 mmHg 88%
    17:00 +24°C° 0.5 mm 0 mps 699 mmHg 90%
    18:00 +23°C° 0.5 mm 0 mps 699 mmHg 92%
    19:00 +21°C° 0.5 mm 0 mps 700 mmHg 94%
    20:00 +21°C° 0.2 mm 0 mps 700 mmHg 95%
    21:00 +21°C° 0.2 mm 0 mps 700 mmHg 95%
    22:00 +20°C° 0.2 mm 0 mps 701 mmHg 96%
    23:00 +20°C° 0.1 mm 0 mps 700 mmHg 96%

    Day after tomorrow, 26 September, Tuesday

    Time Temperature Precipitation Wind Pressure Humidity
    00:00 +20°C° 0.1 mm 0 mps 700 mmHg 97%
    01:00 +20°C° 0.1 mm 0 mps 700 mmHg 97%
    02:00 +22°C° 0.2 mm 1 mps 700 mmHg 98%
    03:00 +22°C° 0.2 mm 1 mps 699 mmHg 98%
    04:00 +21°C° 0.2 mm 1 mps 699 mmHg 99%
    05:00 +21°C° 0 mm 1 mps 699 mmHg 98%
    06:00 +20°C° 0 mm 0 mps 700 mmHg 98%
    07:00 +20°C° 0 mm 0 mps 700 mmHg 97%
    08:00 +24°C° 0 mm 1 mps 701 mmHg 88%
    09:00 +26°C° 0 mm 1 mps 701 mmHg 78%
    10:00 +28°C° 0 mm 1 mps 702 mmHg 68%
    11:00 +29°C° 0.7 mm 1 mps 701 mmHg 70%
    12:00 +29°C° 0.7 mm 1 mps 700 mmHg 73%
    13:00 +29°C° 0.7 mm 1 mps 699 mmHg 75%
    14:00 +29°C° 1 mm 1 mps 699 mmHg 79%
    15:00 +26°C° 1 mm 0 mps 698 mmHg 83%
    16:00 +26°C° 1 mm 0 mps 698 mmHg 87%
    17:00 +24°C° 0.3 mm 0 mps 698 mmHg 89%
    18:00 +23°C° 0.3 mm 0 mps 699 mmHg 92%
    19:00 +21°C° 0.3 mm 0 mps 699 mmHg 95%
    20:00 +21°C° 0.4 mm 0 mps 699 mmHg 95%
    21:00 +21°C° 0.4 mm 0 mps 700 mmHg 96%
    22:00 +20°C° 0.4 mm 0 mps 700 mmHg 96%
    23:00 +20°C° 0.2 mm 0 mps 700 mmHg 97%

    27 September, Wednesday

    Time Temperature Precipitation Wind Pressure Humidity
    00:00 +20°C° 0.2 mm 0 mps 700 mmHg 97%
    01:00 +20°C° 0.2 mm 0 mps 700 mmHg 98%
    02:00 +20°C° 0.4 mm 0 mps 700 mmHg 98%
    03:00 +20°C° 0.4 mm 0 mps 700 mmHg 98%
    04:00 +20°C° 0.4 mm 0 mps 700 mmHg 98%
    05:00 +20°C° 0.3 mm 0 mps 700 mmHg 98%
    06:00 +20°C° 0.3 mm 0 mps 701 mmHg 98%
    07:00 +20°C° 0.3 mm 0 mps 701 mmHg 98%
    08:00 +21°C° 0.8 mm 0 mps 701 mmHg 96%
    09:00 +24°C° 0.8 mm 1 mps 701 mmHg 94%
    10:00 +25°C° 0.8 mm 1 mps 702 mmHg 92%
    11:00 +26°C° 1 mm 1 mps 701 mmHg 89%
    12:00 +27°C° 1 mm 1 mps 700 mmHg 86%
    13:00 +28°C° 1 mm 1 mps 700 mmHg 82%
    14:00 +25°C° 1.2 mm 0 mps 699 mmHg 84%
    15:00 +25°C° 1.2 mm 0 mps 699 mmHg 85%
    16:00 +25°C° 1.2 mm 0 mps 699 mmHg 87%
    17:00 +24°C° 0.3 mm 0 mps 699 mmHg 90%
    18:00 +22°C° 0.3 mm 0 mps 699 mmHg 93%
    19:00 +21°C° 0.3 mm 0 mps 700 mmHg 96%
    20:00 +21°C° 0.1 mm 0 mps 700 mmHg 96%
    21:00 +21°C° 0.1 mm 0 mps 700 mmHg 96%
    22:00 +20°C° 0.1 mm 0 mps 701 mmHg 96%
    23:00 +20°C° 0 mm 0 mps 700 mmHg 97%

    28 September, Thursday

    Time Temperature Precipitation Wind Pressure Humidity
    00:00 +20°C° 0 mm 0 mps 700 mmHg 97%
    01:00 +19°C° 0 mm 0 mps 700 mmHg 98%
    02:00 +19°C° 0 mm 0 mps 700 mmHg 98%
    03:00 +19°C° 0 mm 0 mps 700 mmHg 98%
    04:00 +19°C° 0 mm 0 mps 700 mmHg 98%
    05:00 +19°C° 0 mm 0 mps 700 mmHg 98%
    06:00 +19°C° 0 mm 0 mps 701 mmHg 97%
    07:00 +20°C° 0 mm 0 mps 701 mmHg 97%
    08:00 +22°C° 0 mm 0 mps 702 mmHg 86%
    09:00 +25°C° 0 mm 0 mps 702 mmHg 76%
    10:00 +29°C° 0 mm 1 mps 702 mmHg 66%
    11:00 +30°C° 0.2 mm 1 mps 702 mmHg 61%
    12:00 +32°C° 0.2 mm 1 mps 701 mmHg 56%
    13:00 +33°C° 0.2 mm 1 mps 700 mmHg 51%
    14:00 +33°C° 0.3 mm 1 mps 700 mmHg 54%
    15:00 +32°C° 0.3 mm 1 mps 699 mmHg 57%
    16:00 +31°C° 0.3 mm 1 mps 699 mmHg 59%
    17:00 +29°C° 0.6 mm 1 mps 699 mmHg 70%
    18:00 +26°C° 0.6 mm 1 mps 699 mmHg 81%
    19:00 +24°C° 0.6 mm 1 mps 700 mmHg 92%
    20:00 +21°C° 1.2 mm 0 mps 700 mmHg 94%
    21:00 +21°C° 1.2 mm 0 mps 700 mmHg 95%
    22:00 +20°C° 1.2 mm 0 mps 701 mmHg 97%
    23:00 +20°C° 0.4 mm 0 mps 700 mmHg 97%

    29 September, Friday

    Time Temperature Precipitation Wind Pressure Humidity
    00:00 +20°C° 0.4 mm 0 mps 700 mmHg 98%
    01:00 +20°C° 0.4 mm 0 mps 700 mmHg 98%
    02:00 +20°C° 0 mm 0 mps 700 mmHg 98%
    03:00 +22°C° 0 mm 1 mps 699 mmHg 99%
    04:00 +22°C° 0 mm 1 mps 699 mmHg 99%
    05:00 +20°C° 0 mm 0 mps 700 mmHg 98%
    06:00 +20°C° 0 mm 0 mps 700 mmHg 98%
    07:00 +21°C° 0 mm 0 mps 701 mmHg 98%
    08:00 +22°C° 0 mm 0 mps 701 mmHg 90%
    09:00 +26°C° 0 mm 1 mps 701 mmHg 83%
    10:00 +27°C° 0 mm 1 mps 701 mmHg 75%
    11:00 +29°C° 0.8 mm 1 mps 701 mmHg 74%
    12:00 +28°C° 0.8 mm 0 mps 700 mmHg 72%
    13:00 +29°C° 0.8 mm 0 mps 699 mmHg 70%
    14:00 +29°C° 0.9 mm 0 mps 699 mmHg 67%
    15:00 +28°C° 0.9 mm 0 mps 698 mmHg 65%
    16:00 +28°C° 0.9 mm 0 mps 698 mmHg 62%
    17:00 +26°C° 0.4 mm 0 mps 698 mmHg 72%
    18:00 +24°C° 0.4 mm 0 mps 699 mmHg 81%
    19:00 +22°C° 0.4 mm 0 mps 699 mmHg 91%
    20:00 +22°C° 1 mm 0 mps 699 mmHg 93%
    21:00 +21°C° 1 mm 0 mps 700 mmHg 94%
    22:00 +21°C° 1 mm 0 mps 700 mmHg 96%
    23:00 +21°C° 0.7 mm 0 mps 700 mmHg 97%
    Show more